OpenBCM V1.13 (Linux)

Packet Radio Mailbox

DB0FHN

[JN59NK Nuernberg]

 Login: GUEST





  
LU9DCE > KEPS     25.07.16 05:27l 187 Lines 9066 Bytes #999 (0) @ WW
BID : 4466_LU9DCE
Read: GUEST DK3UZ DG4YDF
Subj: TLE OF jul 2016
Path: DB0FHN<DB0PM<OE5XBL<OE5XBR<OE1XAB<HG8LXL<N0KFQ<N6RME<CX2SA<LU9DCE
Sent: 160725/0314Z @:LU9DCE.TOR.BA.ARG.SOAM #:4466 [TORTUGUITAS] FBB7.00e
From: LU9DCE@LU9DCE.TOR.BA.ARG.SOAM
To  : KEPS@ALL

OSCAR 3
1 01293U 65016F   16206.44491552 -.00000022  00000-0  19545-4 0  9995
2 01293  70.0759 319.0962 0019815 303.7387  56.1836 14.06081143624278
OSCAR 5
1  4321U 70008B   16205.86836346 -.00000054 +00000-0 -56348-4 0  9994
2  4321 101.7968 270.3506 0028197 082.1948 342.8030 12.52169285124947
OSCAR 6
1 06236U 72082B   16206.46976520 -.00000029  00000-0  94792-4 0  9997
2 06236 101.6554 170.9879 0003657 231.0681 242.3725 12.53131441  2354
OSCAR 7
1 07530U 74089B   16206.88366481 -.00000035  00000-0  57138-4 0  9999
2 07530 101.5774 176.7265 0011537 237.0234 177.5217 12.53622160907840
OSCAR 8
1 10703U 78026B   16206.50523262  .00000349  00000-0  26946-3 0  9990
2 10703  98.8364 173.7112 0007032 147.3789 323.0476 13.99206575958761
OSCAR 10
1 14129U 83058B   16204.11752387 -.00000453  00000-0  00000+0 0  9990
2 14129  26.7801  87.2937 6007058 216.9901  38.3119  2.05870412221024
OSCAR 11 (UoSAT 2)
1 14781U 84021B   16205.74472757  .00000140  00000-0  23694-4 0  9996
2 14781  97.7463 256.6242 0008339 185.2437 174.8690 14.82768702741674
OSCAR 16 (PACSAT)
1 20439U 90005D   16206.42561991  .00000025  00000-0  25317-4 0  9993
2 20439  98.5748 142.5467 0011849  53.4549  62.5805 14.32638950384476
OSCAR 17 (DOVE)
1 20440U 90005E   16206.44296679  .00000037  00000-0  29570-4 0  9993
2 20440  98.5557 142.1197 0011702  40.5938  73.1627 14.33029138384708
OSCAR 18 (WEBERSAT)
1 20441U 90005F   16205.88786296 +.00000022 +00000-0 +24166-4 0  9990
2 20441 098.5590 140.9002 0012445 049.8392 351.0193 14.32686674384257
OSCAR 19 (LUSAT)
1 20442U 90005G   16205.86722283 +.00000011 +00000-0 +20012-4 0  9999
2 20442 098.5441 140.3007 0012637 042.1785 318.0369 14.32823272384544
JAS 1B (FUJI 2)
1 20480U 90013C   16206.60952904 -.00000061  00000-0 -69476-4 0  9992
2 20480  99.0215  35.7388 0540967  53.4958 349.5159 12.83411801239707
COSMOS 2123
1 21089U 91007A   16206.87346008  .00000037  00000-0  23795-4 0  9998
2 21089  82.9249 140.7728 0028022 301.7464 119.2254 13.74637101277647
OSCAR 22 (UoSAT 5)
1 21575U 91050B   16206.56955742  .00000012  00000-0  18204-4 0  9995
2 21575  98.7614 209.0344 0007091 186.1996 173.9105 14.40749946314109
OSCAR 23 (KITSAT 1)
1 22077U 92052B   16205.71781061 -.00000041  00000-0  84229-4 0  9996
2 22077  66.0857 294.5858 0010277 219.4971 299.9582 12.86514107125134
KITSAT B
1 22825U 93061C   16206.86973333 -.00000001  00000-0  17137-4 0  9990
2 22825  98.7621 163.3555 0007874 200.7664 159.3199 14.29962012190624
POSAT 1
1 22826U 93061D   16205.92623365 +.00000020 +00000-0 +24940-4 0  9994
2 22826 098.7563 162.5257 0008502 194.6185 165.4753 14.30287251190405
ITAMSAT
1 22828U 93061F   16205.85581539  .00000019  00000-0  24709-4 0  9995
2 22828  98.7471 161.3950 0010071 164.3579 195.7916 14.30597579158999
EYESAT A
1 22829U 93061G   16206.90221796  .00000005  00000-0  18999-4 0  9998
2 22829  98.7508 164.9036 0010164 152.9410 274.9089 14.30934162191266
RADIO ROSTO
1 23439U 94085A   16205.96853682 -.00000053 +00000-0 -28219-3 0  9993
2 23439 064.8175 030.0382 0166122 301.6390 214.5547 11.27564696888403
JAS 2
1 24278U 96046B   16206.36609981 -.00000003  00000-0  30423-4 0  9995
2 24278  98.5848 126.7172 0351297 106.3073 257.6999 13.53069236984545
TMSAT
1 25396U 98043C   16206.40241066  .00000011  00000-0  23228-4 0  9990
2 25396  98.5413 152.6102 0002372 174.6320 185.4885 14.24400741937501
TECHSAT 1B
1 25397U 98043D   16205.82918556 -.00000004  00000-0  17153-4 0  9994
2 25397  98.5688 149.8241 0000668 168.1820 191.9375 14.23598538937076
SEDSAT 1
1 25509U 98061B   16206.83556027  .00000252  00000-0  38575-4 0  9997
2 25509  31.4320 122.3233 0346947  13.0474 347.8866 14.30207581927241
PAN SAT
1 25520U 98064B   16205.98660914  .00000981  00000-0  27207-4 0  9998
2 25520  28.4584  58.8088 0005365 328.7715  31.2561 15.27785594984031
ISS (ZARYA)
1 25544U 98067A   16206.94730108  .00001272  00000-0  25789-4 0  9994
2 25544  51.6433 229.6300 0002168  77.3717 352.9189 15.54877791 10861
OSCAR 36 (UOSAT 12)
1 25693U 99021A   16206.08378789 -.00000062  00000-0  10298-4 0  9994
2 25693  64.5561  56.8350 0003980 254.2889 105.7777 14.80665403931586
OPAL
1 26063U 00004C   16206.40299785 -.00000007  00000-0  17624-4 0  9992
2 26063 100.1897 143.5999 0036784 151.5836 208.7361 14.36624709864313
SAUDISAT 1A
1 26545U 00057A   16206.82996000  .00000047  00000-0  23555-4 0  9998
2 26545  64.5547  22.3289 0056120 273.6996  85.7694 14.84587724855745
TIUNGSAT 1
1 26548U 00057D   16206.45134611  .00000134  00000-0  30864-4 0  9990
2 26548  64.5520 303.9534 0050731 268.2824  91.2474 14.88775479857304
SAUDISAT 1B
1 26549U 00057E   16206.85525791  .00000020  00000-0  20929-4 0  9993
2 26549  64.5543  54.3794 0059530 277.5684  81.8662 14.83213656855095
AMSAT OSCAR 40
1 26609U 00072B   16205.84765313 -.00000241 +00000-0 +00000-0 0  9991
2 26609 007.8214 292.3463 7976819 001.6712 359.9976 01.25587526072097
PCSAT
1 26931U 01043C   16206.46560405 -.00000029  00000-0  20879-4 0  9996
2 26931  67.0493 216.7325 0006266 260.1206  99.9188 14.30416361773476
SAPPHIRE
1 26932U 01043D   16205.47859033 -.00000047  00000-0  13662-4 0  9997
2 26932  67.0543 221.1589 0007355 248.6204 111.4113 14.30218068773364
RUBIN 2
1 27605U 02058A   16205.90591421 -.00000007 +00000-0 +20010-4 0  9995
2 27605 064.5556 030.2820 0065056 208.8559 150.8940 14.74815044731003
SAUDISAT 1C
1 27607U 02058C   16205.90856861 +.00000064 +00000-0 +30052-4 0  9998
2 27607 064.5552 048.6480 0064245 208.9739 150.7792 14.75181200730550
MOZHAYETS 4
1 27939U 03042A   16206.89176400  .00000124  00000-0  30685-4 0  9992
2 27939  97.8940 357.1233 0013056 179.1985 333.4943 14.66426649685341
AMSAT ECHO
1 28375U 04025K   16206.80939396  .00000025  00000-0  20474-4 0  9996
2 28375  98.3289 141.6117 0082307 190.2216 169.7304 14.41788739634643
HAMSAT
1 28650U 05017B   16206.17689305  .00000426  00000-0  51472-4 0  9993
2 28650  97.6103 186.5466 0024804 134.1339 226.1924 14.88336170607377
SSETI-EXPRESS
1 28894U 05043E   16205.94688771 +.00000069 +00000-0 +22714-4 0  9992
2 28894 097.8449 013.2050 0018499 111.9702 248.3468 14.61360245571928
MOZ.5/SAFIR/RUBIN 5/SL-8
1 28898U 05043G   16206.08081389  .00000065  00000-0  22600-4 0  9994
2 28898  97.8838   4.9891 0020826 136.8005 223.4834 14.60112918571958
PEHUENSAT 1
1 29712U 07001D   16206.79975242  .00003229  00000-0  20270-3 0  9999
2 29712  97.5785 228.3679 0006336 331.6573  28.4311 15.09982090517899
DELFI C3
1 32789U 08021G   16206.13733185  .00001335  00000-0  10243-3 0  9991
2 32789  97.6018 264.7162 0014547 131.9263 228.3205 15.03411509447552
YUBELEINY
1 32953U 08025A   16206.62891017  .00000013  00000-0  24432-4 0  9999
2 32953  82.5023  83.3717 0018134 282.5208  77.3843 12.43070414370724
PRISM (HITOMI)
1 33493U 09002B   16206.68627960  .00000614  00000-0  61816-4 0  9999
2 33493  98.2121  68.5385 0016904  81.8136 278.5002 14.95015726406834
STARS (KUKAI)
1 33498U 09002G   16205.96219612 +.00000332 +00000-0 +53301-4 0  9992
2 33498 098.2923 003.5107 0010262 327.2850 151.5365 14.78280672402979
KKS-1 (KISEKI)
1 33499U 09002H   16206.17617260  .00000198  00000-0  37447-4 0  9991
2 33499  98.2928 356.7417 0008809 347.2289  12.8695 14.75015257403006
SUMBANDILA
1 35870U 09049F   16206.78752098  .00006190  00000-0  11506-3 0  9998
2 35870  97.1172 221.1437 0002042 119.4869 294.7112 15.49253314382464
XIWANG-1 (HOPE-1)
1 36122U 09072B   16206.60507346 -.00000043  00000-0 -16092-5 0  9990
2 36122 100.1400 240.9456 0006775 270.5082  89.5255 13.16335115317533
JUGNU
1 37839U 11058B   16206.60339214  .00000304  00000-0  20151-4 0  9998
2 37839  19.9611 276.7165 0018887 172.0305 338.9476 14.12546789247328
SRMSAT
1 37841U 11058D   16206.69387022  .00000306  00000-0  23187-4 0  9994
2 37841  19.9726 311.1208 0011975  83.6099  65.5870 14.10545320246999
RAX-2
1 37853U 11061D   16206.11078923  .00001582  00000-0  99103-4 0  9993
2 37853 101.7101 262.0316 0181277 334.7031  24.5382 14.99908741257433
AUBIESAT-1
1 37854U 11061E   16205.86620537 +.00001191 +00000-0 +73942-4 0  9998
2 37854 101.7012 266.9780 0172577 325.5924 033.4206 15.02393414257158
M-CUBED/EXP-1 PRIME
1 37855U 11061F   16206.84488634  .00001570  00000-0  92759-4 0  9996
2 37855 101.7149 266.4938 0186141 327.1838  31.7921 15.01326508257642
CHIBIS-M
1 38051U 11062C   14288.65876392  .70201582  12497-4  27925-2 0  9995
2 38051 051.5964 324.1908 0006422 269.6897 186.8903 16.43533377153081
MASAT-1
1 38081U 12006E   15009.86954674  .36181825  49011-5  43735-3 0  9992
2 38081 069.4150 141.5751 0006093 101.2598 259.4750 16.49686879155248

======================================================================
Alan Cox wrote: >> On any procmail new enough not to be full of
security holes you set >Brain on, Imeant majordomo of course 8)
You got me worried there for a brief (very brief) moment :-).
		-- Stephen R. van den Berg (AKA BuGless)

======================================================================

        __  __  __ __
|  /  \(__\|  \/  |_    BBS GF05OM TORTUGUITAS 145010Mhz
|__\__/ __/|__/\__|__   TELNET LU9DCE.DYNU.COM PUERTO 6300





Read previous mail | Read next mail


 14.07.2026 05:14:08lGo back Go up